XE3JAR-13 Weather Reports


time (UTC)temp
F
wind
direction
speed
knots
gust
knots
rain 1hr
in
rain 24hr
in
rain mn
in
humidity
%
barometer
mb
20260905152316 97 338 0.0 11.3 0.00 0.50 0.00 73 1014.6
20260905151823 97 90 0.0 0.0 0.00 0.50 0.00 73 1014.6
20260905150811 93 180 0.0 0.0 0.00 0.50 0.00 77 1014.6
20260905150308 93 248 0.0 0.0 0.00 0.50 0.00 77 1014.2
20260905145022 91 90 0.0 0.0 0.00 0.50 0.00 81 1014.2
20260905144519 90 338 0.0 0.0 0.00 0.50 0.00 84 1014.2
20260905143510 88 225 0.0 0.0 0.00 0.50 0.00 87 1014.2
20260905143006 88 203 0.0 0.0 0.00 0.50 0.00 87 1014.2
20260905142507 84 180 0.0 0.0 0.00 0.50 0.00 90 1014.2
20260905141311 82 68 0.0 0.0 0.00 0.50 0.00 94 1014.2
20260905140801 82 315 0.0 0.0 0.00 0.50 0.00 95 1014.2
20260905135030 81 225 0.0 0.0 0.00 0.50 0.00 99 1014.2
20260905132607 79 248 0.0 0.0 0.00 0.50 0.00 99 1013.9
20260905132138 79 203 0.0 0.0 0.00 0.50 0.00 99 1014.2
20260905131122 77 248 0.0 0.0 0.00 0.50 0.00 99 1014.2
20260905130426 77 203 0.0 0.0 0.00 0.50 0.00 99 1014.6
20260905124913 77 225 0.0 0.0 0.00 0.50 0.00 99 1014.6
20260905124407 75 203 0.0 0.0 0.00 0.50 0.00 99 1014.6
20260905123905 75 203 0.0 0.0 0.00 0.50 0.00 99 1014.6
20260905122352 75 225 0.0 0.0 0.00 0.50 0.00 99 1014.2
20260905121850 75 225 0.0 0.0 0.00 0.50 0.00 99 1014.2
20260905120548 75 225 0.0 0.0 0.00 0.50 0.00 99 1013.9
20260905115518 75 338 0.0 0.0 0.00 0.50 0.00 99 1013.9
20260905115216 75 293 0.0 0.0 0.00 0.50 0.00 99 1013.9
20260905114232 75 248 0.0 0.0 0.00 0.50 0.00 99 1013.9
20260905113325 75 225 0.0 0.0 0.00 0.50 0.00 99 1013.9
20260905112856 75 225 0.0 0.0 0.00 0.50 0.00 99 1013.9
20260905112121 75 248 0.0 0.0 0.00 0.50 0.00 99 1013.6
20260905111614 75 225 0.0 0.0 0.00 0.50 0.00 99 1013.6
20260905110606 75 203 0.0 3.5 0.00 0.50 0.00 99 1013.6
20260905110104 75 225 0.0 0.0 0.00 0.50 0.00 99 1013.6
20260905105057 75 225 0.0 0.0 0.00 0.50 0.00 99 1013.6
20260905104552 77 248 0.0 6.1 0.00 0.50 0.00 99 1013.6
20260905104052 75 203 6.1 9.6 0.00 0.50 0.00 99 1013.6
20260905103549 77 270 3.5 6.1 0.00 0.50 0.00 99 1013.6
20260905103043 77 180 6.1 6.1 0.00 0.50 0.00 99 1013.6
20260905102542 77 225 0.0 9.6 0.00 0.50 0.00 99 1013.6
20260905101818 77 248 9.6 9.6 0.00 0.50 0.00 99 1013.6
20260905074342 79 68 19.1 37.4 0.00 0.50 0.00 99 1012.9
20260905073842 79 68 19.1 37.4 0.00 0.50 0.00 99 1012.9
20260905073335 79 68 19.1 37.4 0.00 0.50 0.00 99 1012.9
20260905072832 79 68 19.1 37.4 0.00 0.50 0.00 99 1012.9
20260905072015 79 68 19.1 37.4 0.00 0.50 0.00 99 1012.9
20260905071200 79 68 19.1 37.4 0.00 0.50 0.00 99 1012.9
20260905065807 79 68 19.1 37.4 0.00 0.50 0.00 99 1012.9
20260905065447 79 68 19.1 37.4 0.00 0.50 0.00 99 1012.9
20260905062947 81 113 0.0 0.0 0.00 0.00 0.00 94 1011.8
20260905062409 81 225 0.0 0.0 0.00 0.00 0.00 94 1011.8
20260905061902 81 225 6.1 6.1 0.00 0.00 0.00 94 1011.8
20260905061504 81 225 0.0 0.0 0.00 0.00 0.00 93 1012.5
20260905060854 81 270 0.0 0.0 0.00 0.00 0.00 93 1012.5
20260905060348 81 225 0.0 0.0 0.00 0.00 0.00 93 1012.5
20260905053323 82 203 0.0 0.0 0.00 0.00 0.00 93 1012.9
20260905052818 82 270 0.0 0.0 0.00 0.00 0.00 93 1012.5
20260905052315 82 225 0.0 0.0 0.00 0.00 0.00 93 1012.5
20260905051813 82 248 0.0 0.0 0.00 0.00 0.00 92 1012.2
20260905051310 82 203 0.0 0.0 0.00 0.00 0.00 91 1012.2
20260905050837 82 180 0.0 0.0 0.00 0.00 0.00 93 1012.2
20260905045935 82 270 0.0 0.0 0.00 0.00 0.00 92 1012.2
20260905045436 82 180 0.0 0.0 0.00 0.00 0.00 92 1012.2
20260905044928 82 225 0.0 0.0 0.00 0.00 0.00 93 1012.2
20260905044427 82 203 0.0 0.0 0.00 0.00 0.00 93 1012.2
20260905042910 82 248 0.0 0.0 0.00 0.00 0.00 93 1012.2
20260905041023 82 270 0.0 0.0 0.00 0.00 0.00 93 1012.2
20260905040517 82 270 0.0 0.0 0.00 0.00 0.00 93 1012.2
20260905035506 82 293 0.0 0.0 0.00 0.00 0.00 93 1011.8
20260905035034 82 248 0.0 0.0 0.00 0.00 0.00 93 1012.2
20260905034343 82 225 3.5 3.5 0.00 0.00 0.00 93 1012.2
20260905033841 84 90 6.1 9.6 0.00 0.00 0.00 93 1012.2
20260905033336 84 248 6.1 6.1 0.00 0.00 0.00 93 1012.2
20260905032828 84 158 0.0 0.0 0.00 0.00 0.00 94 1012.2
20260905032321 84 113 0.0 0.0 0.00 0.00 0.00 95 1011.8
20260905031312 84 248 0.0 6.1 0.00 0.00 0.00 95 1011.8
20260905030806 84 23 0.0 0.0 0.00 0.00 0.00 95 1011.8
20260905030302 84 203 0.0 9.6 0.00 0.00 0.00 95 1011.5
20260905025801 86 23 6.1 6.1 0.00 0.00 0.00 94 1011.5
20260905024440 86 225 0.0 0.0 0.00 0.00 0.00 94 1010.8
20260905022404 86 158 0.0 0.0 0.00 0.00 0.00 93 1011.2
20260905015333 88 248 6.1 6.1 0.00 0.00 0.00 91 1010.5
20260905012550 88 0 9.6 11.3 0.00 0.00 0.00 90 1009.8
20260905012043 88 315 6.1 9.6 0.00 0.00 0.00 89 1009.8
20260905011540 88 338 6.1 11.3 0.00 0.00 0.00 89 1009.5
20260905011038 88 293 6.1 19.1 0.00 0.00 0.00 89 1009.5
20260905010532 88 315 6.1 11.3 0.00 0.00 0.00 88 1009.5
20260905010041 88 293 9.6 9.6 0.00 0.00 0.00 88 1009.5
20260905005522 88 68 9.6 9.6 0.00 0.00 0.00 88 1009.1
20260905005015 88 0 11.3 15.6 0.00 0.00 0.00 87 1009.1
20260905004007 90 315 9.6 9.6 0.00 0.00 0.00 86 1009.1
20260905003453 90 45 9.6 15.6 0.00 0.00 0.00 86 1009.1
20260905002444 90 315 9.6 15.6 0.00 0.00 0.00 85 1009.1
20260905001732 90 203 6.1 9.6 0.00 0.00 0.00 84 1009.1
20260904235330 90 248 9.6 19.1 0.00 0.00 0.00 82 1009.1
20260904234829 91 338 11.3 19.1 0.00 0.00 0.00 82 1008.8
20260904234312 91 45 6.1 19.1 0.00 0.00 0.00 82 1008.8
20260904233807 91 315 15.6 15.6 0.00 0.00 0.00 81 1008.8
20260904232706 91 45 11.3 21.7 0.00 0.00 0.00 80 1008.8
20260904232157 91 45 9.6 19.1 0.00 0.00 0.00 80 1008.8
20260904231700 91 23 9.6 15.6 0.00 0.00 0.00 79 1008.1
20260904231142 91 338 9.6 15.6 0.00 0.00 0.00 79 1008.1
20260904230132 93 68 9.6 15.6 0.00 0.00 0.00 78 1008.1
20260904225632 93 270 15.6 15.6 0.00 0.00 0.00 78 1008.5
20260904225134 93 0 11.3 11.3 0.00 0.00 0.00 78 1008.5
20260904224448 93 23 15.6 21.7 0.00 0.00 0.00 78 1008.5
20260904223339 93 270 6.1 9.6 0.00 0.00 0.00 77 1008.5
20260904223037 93 293 6.1 26.9 0.00 0.00 0.00 77 1008.1
20260904222535 93 0 21.7 21.7 0.00 0.00 0.00 77 1008.1
20260904222040 93 90 11.3 31.3 0.00 0.00 0.00 77 1008.1
20260904221532 95 315 15.6 25.2 0.00 0.00 0.00 76 1008.1
20260904220013 97 68 11.3 11.3 0.00 0.00 0.00 73 1008.1
20260904215005 99 23 11.3 21.7 0.00 0.00 0.00 70 1007.8
20260904214123 99 45 11.3 21.7 0.00 0.00 0.00 65 1008.1
20260904213619 99 68 6.1 9.6 0.00 0.00 0.00 65 1008.1
20260904212239 99 23 11.3 21.7 0.00 0.00 0.00 65 1008.1
20260904211208 102 113 19.1 31.3 0.00 0.00 0.00 62 1008.1
20260904210711 106 45 19.1 21.7 0.00 0.00 0.00 59 1008.1
20260904205613 106 113 11.3 21.7 0.00 0.00 0.00 59 1008.5
20260904204525 108 113 11.3 21.7 0.00 0.00 0.00 58 1008.5
20260904201439 102 338 15.6 15.6 0.00 0.00 0.00 60 1008.8
20260904200936 104 68 25.2 25.2 0.00 0.00 0.00 59 1008.8
20260904200432 104 68 19.1 21.7 0.00 0.00 0.00 58 1008.8
20260904195926 104 158 15.6 21.7 0.00 0.00 0.00 58 1009.1
20260904193951 111 23 3.5 9.6 0.00 0.00 0.00 53 1009.8
20260904192941 108 135 9.6 11.3 0.00 0.00 0.00 54 1009.8
20260904192441 108 45 15.6 21.7 0.00 0.00 0.00 55 1009.8
20260904191434 108 23 19.1 19.1 0.00 0.00 0.00 56 1009.8
20260904185905 108 45 3.5 15.6 0.00 0.00 0.00 57 1010.2
20260904184857 108 90 15.6 19.1 0.00 0.00 0.00 56 1010.5
20260904184356 108 45 15.6 15.6 0.00 0.00 0.00 57 1010.5
20260904183409 109 113 11.3 15.6 0.00 0.00 0.00 56 1010.8
20260904182446 108 90 11.3 19.1 0.00 0.00 0.00 57 1010.8
20260904181829 108 90 6.1 6.1 0.00 0.00 0.00 58 1010.8
20260904181322 106 45 11.3 21.7 0.00 0.00 0.00 59 1010.8
20260904180822 108 0 9.6 15.6 0.00 0.00 0.00 59 1010.8
20260904180314 106 45 6.1 15.6 0.00 0.00 0.00 60 1011.2
20260904175809 108 90 6.1 9.6 0.00 0.00 0.00 58 1011.2
20260904173616 106 315 9.6 15.6 0.00 0.00 0.00 61 1011.5
20260904172119 106 113 15.6 15.6 0.00 0.00 0.00 60 1011.5
20260904171144 104 293 9.6 15.6 0.00 0.00 0.00 62 1011.5
20260904170306 104 315 15.6 15.6 0.00 0.00 0.00 62 1011.8
20260904165819 102 68 15.6 21.7 0.00 0.00 0.00 63 1011.8
20260904164756 102 90 9.6 11.3 0.00 0.00 0.00 64 1011.8
20260904163857 102 45 9.6 19.1 0.00 0.00 0.00 65 1011.8
20260904163347 102 0 6.1 11.3 0.00 0.00 0.00 65 1011.8
20260904162844 102 248 6.1 11.3 0.00 0.00 0.00 65 1011.8
20260904162420 102 293 6.1 9.6 0.00 0.00 0.00 65 1011.8
20260904160813 102 45 9.6 15.6 0.00 0.00 0.00 64 1012.2
20260904160301 102 45 0.0 11.3 0.00 0.00 0.00 65 1011.8
20260904154756 99 180 6.1 11.3 0.00 0.00 0.00 68 1011.8
20260904154249 99 0 9.6 15.6 0.00 0.00 0.00 68 1011.8
20260904153743 99 180 6.1 6.1 0.00 0.00 0.00 68 1011.8
20260904153250 99 225 3.5 9.6 0.00 0.00 0.00 68 1011.8